Total_Precipitation_Accumulation
0.00 0.00 0.00 0.00 0.01 0.01 0.01 0.04 0.10 0.12 0.10 0.16 0.27 0.47 0.61 0.59 0.73 1.09 1.25 1.16 1.11 1.25 1.53 1.74 1.91 1.93 2.11 2.17 2.29 2.36 2.56 2.95 3.34 3.29 3.02 2.82 2.52 2.30 2.12 2.00 1.92 1.94 1.96 2.14
0.00 0.01 0.00 0.01 0.01 0.01 0.02 0.06 0.13 0.14 0.12 0.20 0.34 0.56 0.70 0.79 1.01 1.15 1.05 1.00 1.14 1.33 1.64 1.89 1.99 2.02 2.15 2.37 2.71 2.85 2.96 3.35 3.59 3.47 3.31 3.11 2.91 2.56 2.46 2.36 2.21 1.99 1.89 2.01
0.01 0.01 0.01 0.01 0.01 0.02 0.03 0.06 0.11 0.11 0.18 0.29 0.37 0.71 0.86 0.97 1.11 1.09 1.04 1.19 1.23 1.22 1.49 1.64 1.60 1.62 1.70 1.84 2.06 2.36 2.72 3.14 3.28 3.35 3.29 3.18 3.10 2.69 2.54 2.40 2.24 2.04 1.92 1.89
0.01 0.01 0.01 0.01 0.02 0.02 0.05 0.05 0.05 0.08 0.15 0.39 0.45 0.90 1.09 1.29 1.37 1.19 1.14 1.12 1.12 1.29 1.49 1.38 1.23 1.31 1.37 1.35 1.59 1.89 2.24 2.56 2.79 2.93 2.97 3.00 2.90 2.70 2.64 2.47 2.14 1.92 1.80 1.81
0.02 0.02 0.02 0.04 0.02 0.02 0.04 0.04 0.06 0.09 0.16 0.34 0.38 0.70 1.13 1.46 1.57 1.23 1.12 1.06 1.11 1.27 1.23 1.13 1.13 1.22 1.26 1.31 1.55 1.76 1.93 2.20 2.45 2.55 2.55 2.56 2.46 2.37 2.31 2.17 1.94 1.78 1.67 1.61
0.02 0.04 0.04 0.03 0.03 0.04 0.04 0.07 0.12 0.16 0.30 0.55 0.47 0.60 1.07 1.39 1.23 1.06 1.01 0.86 0.92 1.02 1.05 1.06 1.12 1.17 1.24 1.47 1.72 1.89 2.03 2.22 2.33 2.19 2.04 2.02 2.03 2.06 1.97 1.84 1.68 1.52 1.43 1.36
0.13 0.10 0.07 0.05 0.06 0.06 0.07 0.15 0.45 0.70 0.96 0.87 0.59 0.71 1.24 1.07 0.78 0.72 0.81 0.80 0.79 0.79 0.86 0.89 1.07 1.29 1.37 1.41 1.42 1.63 1.90 2.13 2.12 1.93 1.76 1.68 1.68 1.73 1.72 1.62 1.52 1.45 1.33 1.25
0.28 0.25 0.12 0.09 0.11 0.12 0.11 0.21 0.56 0.70 0.72 0.73 0.61 0.97 1.33 0.94 0.66 0.57 0.64 0.66 0.58 0.53 0.46 0.47 0.57 0.69 0.71 0.71 0.70 0.77 0.91 1.10 1.18 1.14 1.14 1.13 1.17 1.24 1.29 1.39 1.34 1.34 1.29 1.18
0.16 0.14 0.09 0.11 0.16 0.16 0.22 0.26 0.25 0.41 0.54 0.78 0.74 0.89 0.88 0.67 0.60 0.52 0.55 0.52 0.45 0.43 0.36 0.33 0.37 0.38 0.43 0.43 0.47 0.56 0.64 0.71 0.76 0.74 0.72 0.74 0.80 0.90 0.97 1.04 1.07 1.11 1.12 1.06
0.09 0.08 0.08 0.08 0.13 0.16 0.19 0.25 0.38 0.58 0.70 0.72 0.74 0.99 1.10 0.98 0.84 0.69 0.66 0.60 0.46 0.37 0.32 0.30 0.31 0.33 0.41 0.50 0.59 0.65 0.65 0.61 0.56 0.56 0.56 0.54 0.60 0.66 0.72 0.76 0.79 0.79 0.81 0.85
0.06 0.05 0.08 0.15 0.19 0.19 0.19 0.25 0.39 0.53 0.56 0.62 0.76 0.83 0.66 0.68 0.77 0.85 0.90 0.76 0.51 0.37 0.31 0.30 0.28 0.32 0.37 0.46 0.53 0.59 0.60 0.58 0.55 0.53 0.53 0.53 0.52 0.52 0.55 0.62 0.63 0.66 0.67 0.69
0.05 0.06 0.09 0.17 0.15 0.10 0.15 0.23 0.36 0.55 0.59 0.62 0.67 0.69 0.40 0.41 0.51 0.61 0.62 0.52 0.37 0.29 0.26 0.24 0.24 0.25 0.29 0.35 0.42 0.46 0.48 0.52 0.52 0.47 0.48 0.50 0.48 0.45 0.47 0.49 0.50 0.53 0.57 0.60
0.05 0.07 0.15 0.36 0.36 0.16 0.17 0.16 0.24 0.35 0.44 0.52 0.63 0.68 0.40 0.39 0.48 0.49 0.48 0.41 0.32 0.28 0.26 0.25 0.24 0.24 0.26 0.32 0.39 0.43 0.44 0.48 0.50 0.47 0.47 0.45 0.47 0.48 0.46 0.40 0.39 0.40 0.44 0.51
0.05 0.05 0.12 0.37 0.40 0.18 0.12 0.14 0.18 0.26 0.39 0.39 0.35 0.45 0.43 0.41 0.48 0.45 0.40 0.33 0.27 0.23 0.23 0.22 0.24 0.26 0.27 0.27 0.29 0.34 0.42 0.50 0.46 0.43 0.43 0.41 0.40 0.40 0.43 0.41 0.37 0.36 0.38 0.43
0.04 0.05 0.07 0.13 0.15 0.15 0.13 0.13 0.14 0.18 0.21 0.30 0.28 0.39 0.44 0.40 0.38 0.33 0.31 0.28 0.23 0.20 0.19 0.17 0.17 0.18 0.20 0.22 0.25 0.29 0.30 0.38 0.44 0.46 0.43 0.41 0.40 0.37 0.35 0.33 0.31 0.31 0.31 0.31
0.05 0.04 0.05 0.13 0.20 0.22 0.22 0.19 0.16 0.15 0.16 0.21 0.24 0.33 0.30 0.27 0.28 0.28 0.26 0.25 0.23 0.18 0.14 0.12 0.11 0.11 0.12 0.14 0.18 0.21 0.23 0.28 0.34 0.37 0.35 0.38 0.39 0.37 0.37 0.31 0.28 0.27 0.28 0.30
0.06 0.06 0.06 0.12 0.27 0.29 0.32 0.21 0.19 0.18 0.17 0.26 0.39 0.40 0.30 0.29 0.26 0.21 0.19 0.16 0.13 0.10 0.08 0.07 0.07 0.07 0.08 0.07 0.10 0.17 0.21 0.23 0.26 0.29 0.31 0.34 0.37 0.40 0.39 0.30 0.27 0.26 0.28 0.30
0.07 0.10 0.13 0.15 0.28 0.38 0.33 0.14 0.11 0.13 0.12 0.13 0.18 0.19 0.19 0.20 0.18 0.14 0.11 0.08 0.06 0.04 0.03 0.03 0.03 0.03 0.03 0.05 0.08 0.15 0.22 0.25 0.27 0.32 0.36 0.38 0.39 0.42 0.41 0.36 0.33 0.34 0.35 0.35
0.07 0.08 0.11 0.14 0.21 0.28 0.19 0.13 0.13 0.15 0.15 0.08 0.09 0.11 0.09 0.08 0.08 0.08 0.05 0.04 0.02 0.02 0.01 0.02 0.02 0.03 0.04 0.06 0.11 0.17 0.21 0.27 0.33 0.38 0.42 0.43 0.44 0.45 0.45 0.44 0.45 0.47 0.49 0.43
0.09 0.10 0.13 0.14 0.20 0.28 0.20 0.15 0.13 0.14 0.27 0.15 0.10 0.08 0.06 0.04 0.08 0.09 0.04 0.02 0.02 0.01 0.01 0.02 0.02 0.04 0.06 0.09 0.14 0.22 0.26 0.32 0.37 0.37 0.39 0.39 0.44 0.49 0.52 0.54 0.57 0.59 0.61 0.54
0.21 0.17 0.17 0.17 0.20 0.19 0.20 0.14 0.11 0.23 0.31 0.10 0.07 0.05 0.04 0.05 0.07 0.06 0.03 0.02 0.03 0.02 0.02 0.03 0.04 0.08 0.14 0.14 0.19 0.26 0.29 0.34 0.36 0.39 0.40 0.41 0.45 0.51 0.54 0.63 0.70 0.74 0.72 0.69
0.28 0.29 0.28 0.28 0.34 0.31 0.23 0.15 0.18 0.22 0.15 0.09 0.07 0.05 0.04 0.04 0.03 0.03 0.03 0.03 0.03 0.03 0.04 0.04 0.07 0.13 0.19 0.21 0.28 0.32 0.33 0.34 0.39 0.43 0.44 0.44 0.49 0.43 0.43 0.65 0.75 0.81 0.84 0.78
0.21 0.26 0.33 0.34 0.33 0.23 0.21 0.17 0.17 0.17 0.14 0.11 0.08 0.06 0.05 0.05 0.04 0.04 0.04 0.05 0.04 0.04 0.05 0.08 0.12 0.17 0.19 0.25 0.37 0.47 0.47 0.47 0.50 0.54 0.57 0.58 0.56 0.57 0.62 0.72 0.79 0.81 0.84 0.83
0.21 0.21 0.26 0.30 0.28 0.23 0.20 0.19 0.15 0.11 0.12 0.10 0.06 0.05 0.06 0.07 0.06 0.07 0.07 0.06 0.06 0.06 0.07 0.09 0.13 0.18 0.23 0.29 0.39 0.51 0.56 0.56 0.59 0.65 0.67 0.71 0.75 0.73 0.75 0.86 0.89 0.87 0.87 0.89
0.20 0.18 0.23 0.29 0.30 0.28 0.27 0.22 0.17 0.12 0.09 0.07 0.05 0.05 0.06 0.07 0.08 0.07 0.07 0.07 0.08 0.08 0.08 0.10 0.16 0.23 0.27 0.31 0.39 0.47 0.55 0.62 0.71 0.73 0.71 0.75 0.82 0.89 0.91 0.91 0.90 0.86 0.89 0.83
0.23 0.21 0.25 0.28 0.27 0.25 0.19 0.18 0.14 0.11 0.11 0.08 0.06 0.05 0.05 0.07 0.07 0.06 0.06 0.07 0.08 0.09 0.11 0.15 0.20 0.26 0.30 0.33 0.41 0.49 0.60 0.70 0.83 0.83 0.78 0.76 0.78 0.85 0.88 0.89 0.76 0.64 0.60 0.53